Location: Dover
(48.8500°N, 53.9833°W)
Time: 07:03:47
(UTC+00:00)

Landsat 7 - Pass Details

Date: 14 November 2025
Orbit: 680 x 682 km, 97.9° (Epoch: 10 December)

Event Time Altitude Azimuth Distance (km) Brightness Sun altitude
Rises 20:54:16 0° 158° (SSE) 3,032 7.1 -9.6°
Reaches altitude 10° 20:56:29 10° 157° (SSE) 2,121 6.2 -10.0°
Maximum altitude 21:01:06 72° 74° (ENE) 722 3.7 -10.7°
Drops below altitude 10° 21:05:46 10° 350° (N) 2,136 6.3 -11.4°
Sets 21:08:01 0° 349° (NNW) 3,056 7.1 -11.8°
